Owatonna, MN

4:13 AM CDT on May 22, 2018 (GMT -0500)
Owatonna Degner Regional

Weather History for KOWA - October, 2011

Change the Weather History Date:

Sunday, October 9, 2011

  Actual Average Record
Temperature  
Mean Temperature 72 °F -  
Max Temperature 82 °F 60 °F 87 °F (2010)
Min Temperature 62 °F 38 °F 5 °F (1997)
Cooling Degree Days 7    
Growing Degree Days 22 (Base 50)    
Moisture  
Dew Point 52 °F    
Average Humidity 53    
Maximum Humidity 68    
Minimum Humidity 30    
Precipitation  
Precipitation 0.00 in - - ()
Sea Level Pressure  
Sea Level Pressure 30.17 in    
Wind  
Wind Speed 10 mph (SSE)    
Max Wind Speed 16 mph    
Max Gust Speed 23 mph    
Visibility 10 miles    
Events      
Averages and records for this station are not official NWS values.
T = Trace of Precipitation, MM = Missing Value Source: NWS Daily Summary

Daily Weather History Graph

Daily Weather History Graph

Search for Another Location

Airport or City:

Astronomy

Oct. 09, 2011 Rise Set
Actual Time 7:20 AM CDT 6:39 PM CDT
Civil Twilight 6:51 AM CDT 7:08 PM CDT
Nautical Twilight 6:17 AM CDT 7:42 PM CDT
Astronomical Twilight 5:43 AM CDT 8:15 PM CDT
Moon 5:19 PM CDT (10/9) 5:01 AM CDT (10/9)
Length of Visible Light 12h 17m
Length of Day
11h 19m
Waxing Gibbous, 95% of the Moon is Illuminated
Oct 9
Waxing Gibbous
Oct 11
Full
Oct 19
Last Quarter
Oct 26
New
Nov 2
First Quarter

Hourly Weather History & Observations

Time (CDT) Temp. Heat Index Dew Point Humidity Pressure Visibility Wind Dir Wind Speed Gust Speed Precip Events Conditions
12:15 AM 69.8 °F - 53.6 °F 56% 30.14 in 10.0 mi SSE 10.4 mph - N/A   Clear
12:35 AM 69.8 °F - 53.6 °F 56% 30.14 in 10.0 mi SSE 9.2 mph - N/A   Clear
12:55 AM 68.0 °F - 53.6 °F 60% 30.14 in 10.0 mi SSE 10.4 mph - N/A   Clear
1:15 AM 68.0 °F - 53.6 °F 60% 30.14 in 10.0 mi SSE 8.1 mph - N/A   Clear
1:35 AM 66.2 °F - 53.6 °F 64% 30.15 in 10.0 mi SSE 9.2 mph - N/A   Clear
1:55 AM 66.2 °F - 53.6 °F 64% 30.16 in 10.0 mi SSE 8.1 mph - N/A   Clear
2:15 AM 66.2 °F - 53.6 °F 64% 30.16 in 10.0 mi SSE 9.2 mph - N/A   Mostly Cloudy
2:35 AM 66.2 °F - 53.6 °F 64% 30.16 in 10.0 mi SSE 9.2 mph - N/A   Mostly Cloudy
2:55 AM 66.2 °F - 53.6 °F 64% 30.16 in 10.0 mi SSE 10.4 mph - N/A   Scattered Clouds
3:15 AM 66.2 °F - 53.6 °F 64% 30.17 in 10.0 mi SSE 10.4 mph - N/A   Clear
3:35 AM 64.4 °F - 53.6 °F 68% 30.17 in 10.0 mi SSE 9.2 mph - N/A   Clear
3:55 AM 64.4 °F - 51.8 °F 64% 30.17 in 10.0 mi SSE 9.2 mph - N/A   Clear
4:15 AM 64.4 °F - 51.8 °F 64% 30.17 in 10.0 mi SSE 10.4 mph - N/A   Clear
4:35 AM 64.4 °F - 51.8 °F 64% 30.17 in 10.0 mi SSE 10.4 mph - N/A   Clear
4:55 AM 64.4 °F - 51.8 °F 64% 30.18 in 10.0 mi SSE 12.7 mph - N/A   Clear
5:15 AM 62.6 °F - 51.8 °F 68% 30.18 in 10.0 mi SSE 12.7 mph - N/A   Clear
5:35 AM 64.4 °F - 51.8 °F 64% 30.18 in 10.0 mi SSE 12.7 mph 17.3 mph N/A   Clear
6:15 AM 62.6 °F - 51.8 °F 68% 30.19 in 10.0 mi SSE 12.7 mph - N/A   Clear
6:35 AM 62.6 °F - 51.8 °F 68% 30.20 in 10.0 mi SSE 11.5 mph - N/A   Clear
6:55 AM 62.6 °F - 51.8 °F 68% 30.20 in 10.0 mi SSE 13.8 mph 18.4 mph N/A   Clear
7:15 AM 62.6 °F - 51.8 °F 68% 30.20 in 10.0 mi SSE 10.4 mph - N/A   Clear
7:35 AM 62.6 °F - 51.8 °F 68% 30.20 in 10.0 mi SSE 11.5 mph - N/A   Clear
7:55 AM 62.6 °F - 51.8 °F 68% 30.21 in 10.0 mi SSE 10.4 mph - N/A   Clear
8:15 AM 62.6 °F - 51.8 °F 68% 30.21 in 10.0 mi SSE 10.4 mph 17.3 mph N/A   Clear
8:35 AM 64.4 °F - 51.8 °F 64% 30.22 in 10.0 mi SSE 12.7 mph - N/A   Scattered Clouds
9:15 AM 66.2 °F - 53.6 °F 64% 30.22 in 10.0 mi South 12.7 mph - N/A   Scattered Clouds
9:35 AM 69.8 °F - 53.6 °F 56% 30.22 in 10.0 mi SSE 12.7 mph - N/A   Clear
9:55 AM 69.8 °F - 53.6 °F 56% 30.22 in 10.0 mi SSE 11.5 mph - N/A   Clear
10:15 AM 71.6 °F - 53.6 °F 53% 30.23 in 10.0 mi South 11.5 mph - N/A   Clear
10:35 AM 71.6 °F - 53.6 °F 53% 30.22 in 10.0 mi South 9.2 mph - N/A   Clear
10:55 AM 73.4 °F - 53.6 °F 50% 30.22 in 10.0 mi South 6.9 mph - N/A   Clear
11:15 AM 75.2 °F - 53.6 °F 47% 30.22 in 10.0 mi South 8.1 mph - N/A   Clear
11:35 AM 75.2 °F - 55.4 °F 50% 30.22 in 10.0 mi SSE 6.9 mph - N/A   Clear
11:55 AM 77.0 °F - 55.4 °F 47% 30.21 in 10.0 mi South 8.1 mph - N/A   Clear
12:15 PM 78.8 °F - 55.4 °F 44% 30.20 in 10.0 mi SSE 10.4 mph - N/A   Clear
12:35 PM 78.8 °F - 55.4 °F 44% 30.19 in 10.0 mi SSE 10.4 mph - N/A   Clear
12:55 PM 80.6 °F 80.5 °F 55.4 °F 42% 30.19 in 10.0 mi SE 11.5 mph - N/A   Clear
1:15 PM 80.6 °F 80.5 °F 55.4 °F 42% 30.18 in 10.0 mi South 10.4 mph 16.1 mph N/A   Clear
1:35 PM 80.6 °F 80.5 °F 55.4 °F 42% 30.18 in 10.0 mi South 9.2 mph 16.1 mph N/A   Clear
1:55 PM 80.6 °F 80.5 °F 55.4 °F 42% 30.17 in 10.0 mi SSE 11.5 mph 16.1 mph N/A   Scattered Clouds
2:15 PM 80.6 °F 80.3 °F 53.6 °F 39% 30.16 in 10.0 mi SSE 16.1 mph 23.0 mph N/A   Scattered Clouds
2:35 PM 82.4 °F - 51.8 °F 35% 30.16 in 10.0 mi South 12.7 mph 19.6 mph N/A   Scattered Clouds
2:55 PM 82.4 °F - 51.8 °F 35% 30.15 in 10.0 mi SSE 8.1 mph 11.5 mph N/A   Scattered Clouds
3:15 PM 80.6 °F - 51.8 °F 37% 30.14 in 10.0 mi SE 13.8 mph 19.6 mph N/A   Scattered Clouds
3:35 PM 82.4 °F - 50.0 °F 32% 30.14 in 10.0 mi SSE 10.4 mph 17.3 mph N/A   Mostly Cloudy
3:55 PM 80.6 °F - 51.8 °F 37% 30.14 in 10.0 mi SE 15.0 mph 20.7 mph N/A   Scattered Clouds
4:15 PM 82.4 °F - 48.2 °F 30% 30.13 in 10.0 mi South 10.4 mph 17.3 mph N/A   Clear
4:35 PM 82.4 °F - 48.2 °F 30% 30.13 in 10.0 mi SE 9.2 mph 19.6 mph N/A   Clear
4:55 PM 80.6 °F - 48.2 °F 32% 30.13 in 10.0 mi SSE 15.0 mph 18.4 mph N/A   Clear
5:15 PM 80.6 °F - 48.2 °F 32% 30.13 in 10.0 mi SE 9.2 mph 20.7 mph N/A   Clear
5:35 PM 78.8 °F - 48.2 °F 34% 30.13 in 10.0 mi SSE 10.4 mph - N/A   Clear
5:55 PM 78.8 °F - 51.8 °F 39% 30.13 in 10.0 mi ESE 13.8 mph 17.3 mph N/A   Clear
6:15 PM 77.0 °F - 50.0 °F 39% 30.14 in 10.0 mi SSE 10.4 mph 18.4 mph N/A   Clear
6:55 PM 73.4 °F - 51.8 °F 47% 30.14 in 10.0 mi SE 8.1 mph - N/A   Clear
7:15 PM 73.4 °F - 51.8 °F 47% 30.14 in 10.0 mi SE 6.9 mph - N/A   Clear
7:35 PM 71.6 °F - 51.8 °F 50% 30.14 in 10.0 mi SE 6.9 mph - N/A   Clear
8:15 PM 69.8 °F - 51.8 °F 53% 30.14 in 10.0 mi SE 8.1 mph - N/A   Clear
8:35 PM 69.8 °F - 51.8 °F 53% 30.13 in 10.0 mi SE 9.2 mph - N/A   Clear
8:55 PM 68.0 °F - 51.8 °F 56% 30.14 in 10.0 mi SE 9.2 mph - N/A   Clear
9:15 PM 66.2 °F - 51.8 °F 60% 30.14 in 10.0 mi SE 8.1 mph - N/A   Clear
9:35 PM 66.2 °F - 51.8 °F 60% 30.14 in 10.0 mi ESE 6.9 mph - N/A   Clear
10:15 PM 64.4 °F - 51.8 °F 64% 30.14 in 10.0 mi ESE 5.8 mph - N/A   Clear
10:35 PM 64.4 °F - 51.8 °F 64% 30.14 in 10.0 mi SE 8.1 mph - N/A   Clear
11:15 PM 64.4 °F - 51.8 °F 64% 30.13 in 10.0 mi SE 8.1 mph - N/A   Clear
11:35 PM 62.6 °F - 51.8 °F 68% 30.13 in 10.0 mi SE 8.1 mph - N/A   Clear
11:55 PM 62.6 °F - 51.8 °F 68% 30.13 in 10.0 mi SE 9.2 mph - N/A   Clear